Location: Home AU
(51.1382°N, 13.5726°E)
Time: 14:54:29
(UTC+01:00)

ISS - Pass Details

Date: 12 January 2018
Orbit: 402 x 407 km, 51.6° (Epoch: 18 January)

Event Time Altitude Azimuth Distance (km) Brightness Sun altitude
Exits shadow 06:23:55 24° 239° (WSW) 882 -2.5 -15.2°
Maximum altitude 06:24:45 28° 212° (SSW) 804 -2.5 -15.1°
Drops below altitude 10° 06:27:36 10° 151° (SSE) 1,462 -0.4 -14.6°
Sets 06:29:51 0° 140° (SE) 2,320 1.0 -14.3°
